Location: Cossonay
(46.5833°N, 6.4167°E)
Time: 10:37:26
(UTC+00:00)

STARLINK-1257 - Pass Details

Date: 06 October 2020
Orbit: 549 x 550 km, 53.0° (Epoch: 21 October)

Event Time Altitude Azimuth Distance (km) Brightness Sun altitude
Exits shadow 04:35:07 18° 265° (W) 1,374 5.0 -12.0°
Maximum altitude 04:37:58 54° 338° (NNW) 675 3.9 -11.5°
Drops below altitude 10° 04:42:03 10° 57° (ENE) 1,826 7.3 -10.8°
Sets 04:44:20 0° 62° (ENE) 2,721 8.5 -10.4°
